Simultaneous Nadir Overpasses (SNOs) Predictions

Prediction of SNOs between GOES-16 and METOP-C Satellite Orbit:

Table of predicted SNOs for the next 14.0 days since TLE Epoch: 5/22/2022
Index Date Time (GOES-16) GOES-16 Lat,Lon METOP-C Lat,Lon Distance(km) Time Diff (sec)
1 05/23/2022 02:26:26 -0.05, -75.18 0.31, -73.53 188.18 80
2 05/24/2022 14:42:35 0.05, -75.21 0.69, -78.09 327.90 80
3 05/25/2022 14:24:35 0.05, -75.22 -0.42, -73.09 242.22 80
4 05/27/2022 02:43:35 -0.05, -75.21 -0.58, -77.69 282.69 80
5 05/28/2022 02:20:14 -0.05, -75.21 0.53, -72.69 287.72 80
6 05/29/2022 14:39:04 0.04, -75.25 0.46, -77.25 227.27 80
7 05/30/2022 14:21:03 0.04, -75.26 -0.66, -72.25 343.38 80
8 06/01/2022 02:40:03 -0.03, -75.26 -0.39, -76.84 180.82 80
9 06/02/2022 02:16:42 -0.03, -75.27 0.73, -71.85 389.96 80
10 06/03/2022 14:35:31 0.02, -75.31 0.25, -76.41 124.33 80
11 06/04/2022 14:17:31 0.02, -75.33 -0.87, -71.41 446.89 80
